Location: Rounton
(54.4000°N, 1.3500°W)
Time: 03:25:18
(UTC+00:00)

S-56A Canister/Altair - Pass Details

Date: 08 December 2021
Orbit: 633 x 2499 km, 38.9° (Epoch: 17 January)

Event Time Altitude Azimuth Distance (km) Brightness Sun altitude
Rises 01:02:51 0° 248° (WSW) 5,103 - -56.0°
Reaches altitude 10° 01:07:18 10° 237° (WSW) 3,764 - -55.7°
Maximum altitude 01:14:19 25° 188° (S) 2,245 - -55.2°
Drops below altitude 10° 01:19:34 10° 136° (SE) 2,729 - -54.8°
Sets 01:22:14 0° 122° (ESE) 3,461 - -54.5°
